Scottsbluff, NE

6:53 PM MDT on March 27, 2017 (GMT -0600)
Heilig

Weather History for KBFF - October, 2012

Change the Weather History Date:

Tuesday, October 30, 2012

  Actual Average Record
Temperature  
Mean Temperature 54 °F 43 °F  
Max Temperature 72 °F 59 °F 80 °F (1968)
Min Temperature 36 °F 28 °F -3 °F (1925)
Degree Days  
Heating Degree Days 11 22  
Month to date heating degree days 510 490  
Since 1 July heating degree days 586 669  
Cooling Degree Days 0 0  
Month to date cooling degree days 0 0  
Year to date cooling degree days 1208 723  
Growing Degree Days 4 (Base 50)    
Moisture  
Dew Point 34 °F    
Average Humidity 54    
Maximum Humidity 85    
Minimum Humidity 22    
Precipitation  
Precipitation 0.00 in 0.03 in 0.52 in (1929)
Month to date precipitation 0.70 1.11  
Year to date precipitation 6.34 14.59  
Snow  
Snow 0.00 in 0.20 in 6.00 in (2002)
Month to date snowfall 6.8 2.6  
Since 1 July snowfall 6.8 3.1  
Snow Depth 0.00 in    
Sea Level Pressure  
Sea Level Pressure 30.03 in    
Wind  
Wind Speed 7 mph (NW)    
Max Wind Speed 14 mph    
Max Gust Speed 17 mph    
Visibility 10 miles    
Events      
T = Trace of Precipitation, MM = Missing Value Source: NWS Daily Summary

Daily Weather History Graph

Daily Weather History Graph

Search for Another Location

Airport or City:

Trip Planner

Search our weather history database for the weather conditions in past years. The results will help you decide how hot, cold, wet, or windy it might be!

Date:

Astronomy

Oct. 30, 2012 Rise Set
Actual Time 7:25 AM MDT 5:50 PM MDT
Civil Twilight 6:56 AM MDT 6:19 PM MDT
Nautical Twilight 6:23 AM MDT 6:52 PM MDT
Astronomical Twilight 5:50 AM MDT 7:24 PM MDT
Moon 6:20 PM MDT (10/30) 8:14 AM MDT (10/30)
Length of Visible Light 11h 23m
Length of Day
10h 25m
Full, 99% of the Moon is Illuminated
Oct 30
Full
Nov 6
Last Quarter
Nov 13
New
Nov 20
First Quarter
Nov 28
Full

Hourly Weather History & Observations

Time (MDT) Temp. Windchill Dew Point Humidity Pressure Visibility Wind Dir Wind Speed Gust Speed Precip Events Conditions
12:53 AM 42.8 °F 38.6 °F 37.4 °F 81% 30.04 in 10.0 mi NW 6.9 mph - N/A   Clear
1:53 AM 44.1 °F 39.0 °F 37.0 °F 76% 29.98 in 10.0 mi NW 9.2 mph - N/A   Clear
2:53 AM 44.1 °F 39.0 °F 36.0 °F 73% 30.00 in 10.0 mi WNW 9.2 mph - N/A   Clear
3:53 AM 37.9 °F 32.7 °F 34.0 °F 86% 30.02 in 10.0 mi NW 6.9 mph - N/A   Clear
4:53 AM 37.9 °F 32.7 °F 34.0 °F 86% 30.04 in 10.0 mi NW 6.9 mph - N/A   Clear
5:53 AM 37.0 °F 32.4 °F 34.0 °F 89% 30.06 in 10.0 mi NW 5.8 mph - N/A   Clear
6:53 AM 39.0 °F 34.0 °F 34.0 °F 82% 30.07 in 10.0 mi NNW 6.9 mph - N/A   Clear
7:53 AM 39.9 °F 36.7 °F 34.0 °F 79% 30.10 in 10.0 mi NNW 4.6 mph - N/A   Clear
8:53 AM 48.0 °F - 37.9 °F 68% 30.10 in 10.0 mi WNW 6.9 mph - N/A   Clear
9:53 AM 55.0 °F - 37.0 °F 51% 30.08 in 10.0 mi WNW 6.9 mph - N/A   Clear
10:53 AM 59.0 °F - 37.0 °F 44% 30.07 in 10.0 mi NW 9.2 mph - N/A   Clear
11:53 AM 64.0 °F - 37.0 °F 37% 30.04 in 10.0 mi WNW 5.8 mph - N/A   Clear
12:53 PM 68.0 °F - 34.0 °F 28% 30.00 in 10.0 mi WNW 8.1 mph - N/A   Clear
1:53 PM 70.0 °F - 34.0 °F 27% 29.97 in 10.0 mi West 9.2 mph - N/A   Clear
2:53 PM 71.1 °F - 33.1 °F 25% 29.95 in 10.0 mi WNW 5.8 mph - N/A   Clear
3:53 PM 72.0 °F - 32.0 °F 23% 29.97 in 10.0 mi WNW 6.9 mph - N/A   Clear
4:53 PM 71.1 °F - 30.0 °F 22% 29.97 in 10.0 mi WNW 12.7 mph 16.1 mph N/A   Clear
5:53 PM 60.8 °F - 30.2 °F 31% 30.03 in 10.0 mi WNW 5.8 mph - N/A   Clear
6:53 PM 55.9 °F - 35.1 °F 45% 30.04 in 10.0 mi North 9.2 mph - N/A   Clear
7:53 PM 48.9 °F - 35.1 °F 59% 30.06 in 10.0 mi North 5.8 mph - N/A   Clear
8:53 PM 46.9 °F - 35.1 °F 63% 30.06 in 10.0 mi Calm Calm - N/A   Clear
9:53 PM 46.0 °F 43.1 °F 35.1 °F 66% 30.06 in 10.0 mi NW 5.8 mph - N/A   Clear
10:53 PM 39.9 °F 35.1 °F 33.1 °F 77% 30.06 in 10.0 mi NW 6.9 mph - N/A   Clear
11:53 PM 41.0 °F 39.0 °F 33.1 °F 73% 30.05 in 10.0 mi North 3.5 mph - N/A   Clear